Temperature
8 8 8 9 10 10 10 11 11 10 10 10 10 10 10 10 10 10 11 11 10 10 10 10 10 10 10 9 9 9 9 9 9 9 8 8 8 8 7 7 7 6 6
8 8 8 9 9 9 10 10 10 10 10 11 11 10 10 10 10 11 11 11 11 11 10 10 10 10 9 9 9 9 9 9 9 8 8 8 8 7 7 7 6 6 5
8 8 8 8 9 9 10 10 10 10 10 10 10 10 10 10 11 11 11 11 11 11 11 10 10 10 10 10 9 9 9 9 8 8 8 7 7 7 7 6 6 6 5
7 7 8 8 9 9 9 10 10 10 10 10 10 10 10 10 11 11 11 11 11 10 10 10 10 10 10 10 9 9 9 9 8 8 7 7 7 7 6 6 6 5 4
6 7 7 8 9 9 9 9 9 10 10 10 10 10 10 10 10 10 10 10 10 10 10 10 10 10 10 10 10 9 9 9 8 8 7 7 6 6 6 5 5 4 4
6 6 7 7 8 8 9 9 9 9 10 10 10 10 10 10 10 10 10 10 10 10 10 10 10 9 9 9 9 9 9 8 8 8 7 7 6 6 5 5 4 4 3
6 6 6 7 7 8 8 9 9 9 9 9 10 10 10 10 10 10 10 10 10 10 10 10 9 9 9 9 9 8 8 8 8 7 7 7 6 5 5 4 4 3 3
5 6 6 6 7 7 8 8 8 9 9 9 10 10 10 10 10 10 9 9 9 10 10 10 9 9 9 9 8 8 8 7 7 7 6 6 5 5 4 4 3 3 2
5 5 6 6 6 7 7 8 8 8 9 9 9 10 9 10 10 10 9 9 9 9 9 9 9 9 9 8 8 8 7 7 6 6 6 5 5 4 4 3 3 2 2
4 5 6 6 6 6 7 7 8 8 9 9 9 9 9 9 9 9 9 9 9 9 9 9 9 9 8 8 8 7 7 7 6 6 5 5 4 4 3 3 2 2 1
4 5 5 6 6 6 7 7 7 8 8 9 9 9 9 9 9 9 9 9 9 9 9 8 8 8 8 7 7 7 7 6 6 5 5 4 4 3 3 2 2 1 0
4 5 5 5 6 6 6 7 7 8 8 8 9 9 9 9 9 9 9 9 9 9 9 8 8 7 7 7 7 6 6 6 5 5 4 4 3 3 2 2 1 0 -0
4 4 5 5 5 6 6 6 7 7 8 8 8 8 8 8 8 9 9 8 8 8 8 8 8 7 7 6 6 6 5 5 5 4 4 3 3 2 2 1 1 0 -1
3 4 4 4 5 5 6 6 6 7 7 7 8 8 8 8 8 8 8 8 8 8 7 7 7 6 6 6 5 5 5 4 4 4 3 3 2 2 1 1 0 -0 -1
3 3 4 4 4 5 5 6 6 7 7 7 8 8 8 8 8 8 8 8 8 7 7 7 6 6 5 5 5 4 4 4 3 3 3 2 2 1 1 0 -0 -1 -1
2 3 3 4 4 4 5 5 6 6 7 7 8 8 8 8 8 8 8 8 7 7 7 7 6 6 5 5 5 4 4 3 3 3 2 2 1 1 0 -0 -1 -1 -2
2 2 3 3 4 4 4 5 5 6 6 7 7 7 8 8 7 7 7 7 7 7 6 6 6 5 5 5 4 4 4 3 3 2 2 1 1 0 -0 -1 -1 -2 -2
2 2 2 3 3 4 4 4 5 5 6 6 6 7 7 7 7 7 7 7 6 6 6 6 6 5 5 5 4 4 3 3 2 2 1 1 1 0 -0 -1 -2 -2 -3
1 2 2 2 3 3 4 4 5 5 6 6 6 6 6 6 6 6 6 6 6 6 6 5 5 5 5 4 4 4 3 3 2 2 1 1 0 -0 -1 -1 -2 -3 -3
1 2 2 2 3 3 4 4 4 5 5 5 5 5 5 5 5 5 5 5 6 5 5 5 5 4 4 4 4 3 3 2 2 1 1 0 -0 -1 -1 -2 -2 -3 -4
1 2 2 2 3 3 3 4 4 5 5 5 5 5 5 5 5 5 5 5 5 5 5 5 5 4 4 4 3 3 2 2 1 1 0 -0 -0 -1 -2 -2 -3 -4 -4
1 2 2 2 3 3 3 4 4 4 4 4 4 4 4 5 5 5 5 5 5 5 5 5 4 4 4 3 3 3 2 2 1 1 0 -0 -1 -1 -2 -2 -3 -4 -4
1 1 2 2 3 3 3 4 4 4 4 4 4 4 4 4 5 5 5 5 4 4 4 4 4 4 3 3 3 2 2 2 1 0 0 -0 -1 -2 -2 -3 -3 -4 -5
1 1 2 2 2 3 3 3 3 3 3 3 4 4 4 4 4 4 4 4 4 4 4 4 4 3 3 3 2 2 1 1 0 0 -0 -1 -1 -2 -3 -3 -4 -5 -5
1 1 2 2 2 2 3 3 3 3 3 3 3 3 4 4 4 4 4 4 4 4 3 3 3 3 2 2 2 1 1 0 0 -0 -1 -1 -2 -2 -3 -3 -4 -5 -5
1 1 2 2 2 2 2 2 2 2 2 3 3 3 3 4 4 4 4 3 3 3 3 3 2 2 2 2 1 1 0 0 -0 -1 -1 -2 -2 -3 -3 -4 -4 -5 -5
Wind_Speed
4 6 7 8 9 10 12 13 14 14 16 18 17 16 15 15 15 14 14 14 14 12 10 11 10 8 6 5 5 4 4 4 3 1 1 2 3 3 2 2 2 2 2
5 6 6 6 8 9 11 12 13 14 16 17 17 17 16 16 15 16 16 15 15 14 13 12 10 9 8 7 6 5 4 4 4 3 1 2 2 2 2 1 0 1 2
5 5 5 6 7 8 9 11 12 14 14 16 17 17 16 16 16 15 15 15 14 13 13 13 11 11 9 7 7 6 5 4 4 4 2 1 1 1 1 1 1 1 2
4 4 4 5 7 8 8 9 12 13 14 15 16 16 16 15 15 14 14 14 13 12 12 12 12 12 11 10 8 7 6 5 4 4 3 2 1 1 1 0 1 1 2
5 4 4 5 5 6 7 8 9 11 13 13 14 15 15 14 14 14 13 14 13 12 11 11 10 12 12 10 8 8 8 6 5 4 3 2 2 2 1 1 1 2 1
6 4 4 4 4 5 6 8 9 10 11 12 13 14 14 12 15 17 14 13 13 13 12 11 10 12 12 12 11 11 10 8 7 5 4 3 3 3 2 1 1 1 2
6 4 4 3 4 5 6 7 8 9 10 11 13 13 14 14 18 18 17 13 13 13 12 11 9 9 12 10 10 11 8 8 8 7 6 4 4 4 4 2 1 0 1
6 4 3 3 4 4 5 7 8 8 10 10 12 13 12 13 19 19 18 12 11 12 12 12 12 11 11 12 10 8 6 5 6 5 5 4 4 4 4 3 2 1 1
6 4 3 3 4 4 5 6 7 7 8 9 11 12 13 13 19 20 17 10 10 11 10 11 12 11 16 17 13 11 9 6 8 11 10 9 9 8 7 4 3 2 1
7 5 4 3 4 4 5 5 5 7 8 9 10 11 12 12 17 20 18 10 10 10 9 10 13 14 18 18 13 12 11 8 7 8 8 8 8 8 7 4 3 2 1
7 6 4 4 4 4 4 4 5 6 7 8 10 9 11 12 17 21 19 12 11 11 10 9 9 17 19 18 14 10 12 11 9 8 6 5 5 4 4 5 4 2 2
6 5 4 4 5 4 3 3 5 7 8 8 9 9 8 10 13 17 19 15 14 11 11 9 10 18 18 17 12 14 17 14 8 7 6 5 4 3 3 4 5 5 3
6 5 4 4 5 4 4 4 4 6 7 7 8 9 8 8 10 16 18 17 16 10 9 14 17 19 17 12 15 18 14 9 8 7 6 4 3 4 4 4 4 5 5
6 5 4 4 4 3 3 4 5 6 7 8 9 9 9 8 9 10 11 12 14 12 11 15 18 17 13 12 13 11 7 7 7 7 6 5 4 4 3 2 2 2 2
6 5 4 4 3 2 2 3 4 5 7 9 9 10 11 11 12 15 14 12 11 12 12 9 9 9 8 7 7 7 6 7 6 6 7 6 5 4 3 2 2 1 1
6 5 4 3 2 2 1 1 0 4 6 8 10 11 9 12 17 19 18 19 20 21 14 11 10 10 10 9 9 7 6 6 6 6 6 6 5 4 3 2 2 1 1
6 6 4 3 3 3 2 3 2 2 4 7 11 13 14 18 20 21 21 21 22 20 11 10 11 10 10 9 9 8 6 6 6 7 6 6 5 4 4 3 2 1 1
6 6 5 4 4 3 3 3 4 5 5 5 8 14 17 20 21 22 23 18 13 11 9 11 11 10 10 10 9 8 8 7 7 6 6 6 5 5 4 3 2 1 1
6 4 4 3 3 4 4 4 4 6 6 6 6 9 15 18 19 20 19 10 11 10 9 9 9 10 10 9 9 9 9 8 8 7 6 6 5 5 4 3 2 2 1
5 6 5 4 4 4 4 5 5 6 7 7 8 8 10 10 10 11 9 8 9 10 10 10 9 10 10 10 9 9 9 8 8 7 6 6 5 5 5 4 3 2 1
4 4 5 4 4 5 5 6 6 6 7 7 7 9 13 10 10 10 9 9 9 10 10 10 10 10 10 9 9 10 10 9 8 7 7 6 5 5 4 4 3 2 1
4 4 3 4 4 4 5 5 6 7 8 8 7 8 13 9 9 9 8 8 8 8 10 10 10 9 9 10 11 11 10 9 8 8 7 6 5 5 4 4 3 2 2
3 3 3 3 4 5 5 5 6 7 7 8 8 8 8 8 9 9 9 9 9 9 9 10 10 9 9 9 10 11 11 10 9 10 9 7 6 5 5 4 4 3 2
3 3 4 4 4 5 6 6 6 7 8 8 8 8 8 9 9 10 9 9 9 9 10 10 10 12 13 11 10 10 11 12 13 11 11 9 7 6 5 4 3 3 2
2 2 4 5 5 5 6 6 6 7 7 8 8 8 9 9 10 10 10 10 11 11 11 11 11 12 14 14 13 12 16 17 16 13 11 9 8 7 6 5 4 3 2
2 2 3 4 5 6 6 7 7 7 7 8 8 8 9 10 11 11 11 11 11 11 11 10 12 14 15 14 16 19 19 19 18 16 13 9 8 6 6 5 5 3 3
Wind_Direction
270 252 248 218 202 200 194 187 186 181 178 178 178 179 181 182 180 180 181 178 179 179 178 180 182 172 169 168 161 162 165 155 178 180 111 115 120 128 127 152 183 210 245
272 260 252 228 206 201 193 188 187 184 182 179 177 180 183 184 182 183 182 180 180 181 180 178 180 174 170 170 168 172 174 165 162 177 152 122 128 139 138 144 204 234 264
284 267 256 234 214 204 193 192 191 186 183 182 180 182 185 185 184 184 182 181 180 179 178 179 177 173 176 172 170 174 174 162 150 156 164 131 112 115 102 42 331 314 292
292 269 256 242 222 210 197 194 195 187 184 185 184 183 184 184 183 181 180 178 177 177 178 178 177 178 178 174 175 175 165 157 147 145 149 139 125 114 109 97 315 304 310
296 275 266 251 231 211 200 193 192 189 183 184 183 182 181 182 183 178 177 176 174 172 171 171 170 169 172 173 172 170 164 160 152 153 157 147 148 143 181 180 275 314 324
303 286 286 265 233 210 202 192 188 187 182 180 182 181 180 182 177 174 172 174 172 170 169 166 164 163 164 161 157 156 160 165 170 166 167 171 183 176 156 147 134 22 288
305 302 290 287 246 214 202 190 189 185 181 182 182 179 180 177 170 171 170 169 170 170 168 165 163 163 155 151 143 136 137 145 156 161 162 177 172 178 156 149 158 194 240
300 298 297 294 269 226 203 193 192 185 182 186 182 179 177 174 167 167 165 164 165 167 167 165 162 159 160 151 143 134 124 120 134 134 143 144 136 135 145 154 157 105 25
300 296 296 294 276 239 212 201 191 184 183 185 181 177 175 172 168 166 163 164 162 162 162 161 162 162 158 148 145 142 131 113 100 110 108 108 108 110 112 108 101 78 28
306 298 296 292 278 253 219 207 196 184 184 181 177 176 173 172 169 166 164 166 161 157 153 157 160 161 159 154 156 154 152 149 135 116 102 96 92 94 96 104 129 116 88
300 296 292 291 285 261 229 207 194 184 180 180 172 171 171 171 170 169 167 169 165 159 158 159 163 158 157 157 155 158 156 146 139 130 121 110 97 86 77 74 77 114 138
297 295 289 287 287 267 221 204 194 183 177 178 169 166 167 169 170 172 169 164 158 159 162 159 155 152 152 152 151 147 141 135 133 130 128 128 123 109 87 77 72 69 86
299 298 288 283 278 258 224 202 193 185 177 178 171 167 162 160 163 161 162 155 147 148 151 148 145 145 144 144 143 142 140 139 138 138 143 143 133 124 112 93 75 66 49
292 293 288 281 280 264 240 210 197 189 182 179 174 167 161 160 160 160 159 151 139 133 133 136 134 133 131 132 136 138 137 143 143 144 141 132 122 119 117 106 89 66 44
289 285 284 277 275 282 273 230 211 208 194 184 180 170 168 172 168 158 158 157 153 145 137 133 135 138 138 135 134 134 133 134 132 131 134 135 131 125 118 102 90 65 57
284 281 272 261 264 253 250 279 198 196 186 182 174 166 167 160 152 151 149 148 146 145 141 149 151 152 153 151 148 144 142 142 140 138 139 139 140 139 131 112 82 72 62
277 273 264 250 244 234 210 182 161 111 140 154 152 152 152 152 152 152 149 147 148 146 145 154 157 158 155 153 153 152 150 146 142 142 141 141 140 138 135 129 107 74 52
276 267 252 241 231 221 209 190 174 161 151 142 139 144 147 151 152 150 147 141 150 150 154 157 158 157 155 155 155 151 145 144 143 143 141 142 142 141 140 138 132 122 70
273 260 244 229 220 214 203 184 171 159 148 143 135 139 144 146 146 149 149 152 159 160 156 154 153 154 155 154 152 150 149 149 147 145 144 144 145 142 139 138 136 126 77
272 261 246 221 210 207 194 175 163 154 149 149 154 152 148 143 148 153 154 153 155 156 153 150 150 152 153 152 150 148 146 146 146 145 146 144 143 142 144 143 138 134 100
268 260 245 219 207 198 187 171 161 156 153 151 153 158 158 155 156 157 158 158 157 154 152 150 150 152 151 149 149 148 147 149 150 148 145 145 143 140 138 135 133 126 107
259 251 230 201 189 181 173 163 156 153 152 148 144 150 153 149 150 151 153 152 149 148 148 148 149 151 154 156 154 152 150 150 150 148 144 141 139 138 137 132 128 122 113
254 240 215 188 172 164 158 153 154 154 151 149 149 151 152 147 146 146 146 143 140 139 139 141 143 143 140 142 147 151 154 157 156 151 147 144 141 141 139 138 137 132 120
253 224 180 166 161 157 152 151 152 151 150 148 148 149 148 144 140 138 139 137 136 135 135 136 139 142 139 136 137 139 140 143 144 145 143 143 140 139 137 136 134 135 131
243 197 169 162 158 153 149 146 145 147 148 147 146 144 142 139 136 135 134 133 132 132 131 131 133 136 137 136 136 137 140 139 140 139 136 133 134 136 137 136 135 130 116
228 188 166 157 154 149 146 145 146 146 146 144 144 143 142 140 138 136 135 134 133 131 129 128 130 133 134 134 135 136 138 138 138 136 132 129 132 135 134 131 127 123 115
Height
1368 1370 1371 1373 1376 1380 1383 1388 1393 1398 1404 1410 1417 1423 1429 1436 1441 1447 1452 1458 1463 1469 1473 1478 1482 1486 1489 1492 1495 1497 1499 1501 1502 1504 1505 1505 1505 1505 1504 1503 1502 1500 1499
1365 1366 1367 1369 1372 1375 1379 1383 1389 1394 1399 1405 1412 1418 1424 1430 1436 1442 1447 1452 1458 1463 1468 1473 1477 1481 1485 1488 1491 1493 1495 1497 1499 1500 1501 1501 1501 1501 1500 1499 1498 1497 1495
1361 1362 1363 1364 1368 1371 1374 1379 1384 1389 1394 1400 1406 1413 1419 1425 1431 1436 1442 1447 1452 1458 1463 1468 1472 1476 1480 1483 1486 1489 1491 1493 1495 1496 1496 1497 1497 1497 1496 1495 1494 1493 1491
1358 1358 1359 1360 1363 1366 1370 1374 1380 1384 1390 1395 1401 1407 1413 1419 1425 1431 1437 1442 1448 1453 1458 1463 1467 1471 1475 1478 1482 1484 1487 1489 1490 1491 1492 1493 1493 1492 1492 1491 1490 1489 1488
1356 1356 1356 1357 1360 1363 1367 1371 1375 1380 1385 1391 1396 1403 1409 1414 1420 1425 1431 1437 1443 1448 1453 1458 1463 1467 1471 1474 1477 1479 1482 1484 1485 1486 1488 1488 1488 1488 1488 1487 1486 1485 1484
1354 1353 1354 1355 1356 1359 1363 1368 1372 1376 1380 1386 1392 1397 1403 1408 1414 1420 1427 1432 1438 1443 1448 1453 1458 1463 1467 1470 1473 1475 1478 1480 1481 1482 1483 1484 1484 1484 1484 1484 1483 1481 1480
1351 1351 1351 1352 1354 1356 1360 1363 1367 1371 1377 1382 1387 1392 1398 1404 1410 1416 1422 1428 1433 1438 1444 1449 1453 1458 1461 1465 1468 1471 1473 1475 1477 1479 1479 1480 1481 1481 1481 1480 1480 1479 1477
1350 1349 1349 1350 1351 1353 1355 1359 1363 1367 1372 1377 1382 1388 1394 1399 1406 1412 1418 1423 1429 1434 1439 1444 1449 1453 1457 1460 1464 1466 1469 1471 1473 1474 1476 1477 1477 1478 1477 1477 1477 1476 1474
1348 1347 1348 1348 1349 1350 1352 1355 1359 1364 1368 1373 1378 1384 1389 1395 1401 1407 1413 1418 1424 1429 1435 1440 1444 1448 1452 1456 1459 1462 1464 1467 1469 1471 1472 1473 1474 1474 1474 1474 1473 1472 1471
1345 1345 1345 1346 1346 1347 1349 1352 1356 1360 1364 1369 1374 1379 1385 1390 1397 1402 1408 1413 1419 1424 1430 1435 1440 1444 1447 1451 1454 1457 1460 1462 1465 1467 1468 1470 1470 1471 1471 1471 1470 1469 1468
1343 1342 1342 1343 1343 1344 1346 1349 1352 1356 1360 1365 1370 1376 1381 1387 1392 1398 1404 1409 1414 1419 1425 1430 1435 1439 1443 1447 1450 1453 1456 1459 1461 1463 1465 1466 1467 1468 1468 1468 1468 1467 1466
1340 1340 1340 1340 1340 1341 1344 1346 1349 1353 1357 1361 1366 1371 1377 1383 1389 1394 1399 1405 1410 1415 1420 1425 1430 1435 1439 1443 1446 1449 1453 1456 1458 1460 1462 1463 1464 1465 1465 1465 1465 1464 1464
1337 1337 1337 1337 1338 1339 1340 1343 1346 1350 1353 1357 1362 1367 1373 1379 1385 1390 1396 1401 1406 1411 1416 1421 1426 1431 1436 1439 1443 1446 1449 1452 1454 1456 1458 1460 1461 1462 1463 1463 1462 1462 1461
1334 1334 1333 1334 1334 1335 1337 1340 1343 1346 1350 1354 1358 1363 1368 1374 1380 1386 1391 1397 1403 1408 1413 1418 1423 1428 1432 1436 1439 1443 1446 1449 1451 1453 1455 1457 1458 1459 1460 1460 1460 1459 1458
1331 1331 1330 1331 1331 1331 1333 1336 1339 1342 1346 1350 1354 1359 1364 1369 1375 1381 1386 1392 1398 1404 1409 1414 1419 1424 1428 1432 1436 1439 1443 1445 1448 1450 1453 1454 1456 1457 1458 1458 1457 1457 1456
1327 1327 1327 1327 1328 1329 1330 1333 1335 1339 1343 1348 1352 1357 1361 1367 1372 1378 1384 1390 1395 1401 1406 1410 1414 1419 1423 1427 1432 1436 1439 1442 1445 1448 1450 1452 1453 1454 1455 1455 1455 1454 1453
1323 1323 1323 1324 1324 1326 1327 1329 1332 1336 1340 1344 1349 1354 1359 1364 1370 1375 1380 1386 1392 1397 1401 1405 1410 1415 1419 1424 1428 1433 1436 1440 1443 1445 1448 1449 1451 1452 1452 1453 1452 1452 1451
1319 1319 1319 1320 1321 1322 1324 1326 1329 1332 1336 1340 1346 1351 1356 1361 1367 1372 1378 1383 1388 1393 1397 1402 1406 1411 1416 1421 1426 1430 1434 1437 1440 1443 1445 1447 1448 1450 1450 1450 1450 1450 1449
1314 1314 1315 1316 1317 1319 1321 1323 1326 1330 1333 1338 1343 1348 1354 1359 1364 1369 1374 1379 1383 1388 1394 1399 1404 1409 1414 1419 1423 1427 1431 1434 1437 1440 1443 1445 1446 1447 1448 1448 1448 1448 1447
1309 1310 1310 1312 1313 1315 1318 1321 1323 1327 1331 1335 1340 1345 1351 1356 1360 1366 1371 1376 1381 1386 1391 1396 1401 1407 1412 1416 1421 1424 1428 1432 1435 1438 1440 1442 1444 1445 1446 1446 1446 1446 1445
1305 1305 1306 1307 1309 1312 1314 1318 1320 1324 1328 1333 1337 1343 1348 1353 1357 1362 1368 1373 1379 1384 1389 1394 1399 1404 1409 1414 1418 1422 1426 1429 1433 1436 1438 1440 1442 1443 1444 1445 1445 1444 1444
1301 1301 1301 1303 1305 1308 1311 1315 1318 1322 1326 1330 1335 1341 1346 1351 1356 1361 1366 1371 1377 1382 1388 1393 1398 1403 1407 1412 1416 1420 1423 1427 1430 1434 1436 1438 1440 1441 1442 1443 1443 1443 1442
1297 1297 1298 1300 1302 1305 1309 1312 1316 1320 1324 1329 1333 1338 1344 1348 1353 1359 1364 1370 1375 1380 1386 1391 1396 1401 1406 1411 1415 1419 1422 1425 1429 1432 1434 1436 1438 1439 1440 1441 1441 1441 1441
1294 1294 1295 1297 1300 1303 1307 1310 1314 1318 1323 1327 1332 1337 1342 1347 1352 1358 1363 1368 1374 1379 1385 1390 1395 1400 1404 1409 1413 1417 1421 1425 1427 1430 1433 1435 1436 1438 1439 1439 1440 1440 1439
1291 1292 1293 1296 1299 1302 1305 1309 1313 1317 1321 1325 1330 1335 1340 1346 1351 1357 1362 1367 1373 1378 1384 1389 1394 1399 1404 1408 1412 1416 1420 1423 1426 1429 1431 1433 1435 1436 1437 1438 1439 1439 1438
1289 1290 1292 1294 1297 1300 1304 1308 1312 1316 1320 1325 1329 1334 1339 1345 1350 1356 1361 1367 1372 1377 1383 1388 1394 1398 1403 1407 1412 1416 1419 1422 1425 1428 1430 1432 1434 1435 1436 1437 1438 1438 1437